EW4806 Weather Reports


Display with metric or nautical units.
time (UTC)temp
F
wind
direction
speed
MPH
gust
MPH
rain 1hr
in
rain 24hr
in
rain mn
in
humidity
%
barometer
mb
20260502162920 57 124 0.0 0.0 0.00 0.00 0.00 67 1014.1
20260502161419 57 124 0.0 0.0 0.00 0.00 0.00 68 1014.2
20260502151417 55 280 0.0 1.0 0.00 0.00 0.00 72 1014.2
20260502122859 52 213 0.0 0.0 0.00 0.00 0.00 78 1013.6
20260502122056 52 213 0.0 0.0 0.00 0.00 0.00 77 1013.8
20260502115856 52 213 0.0 0.0 0.00 0.00 0.00 77 1013.9
20260502115809 53 213 0.0 0.0 0.00 0.00 0.00 76 1013.9
20260502112856 53 213 0.0 0.0 0.00 0.00 0.00 76 1013.9
20260502112041 53 213 0.0 0.0 0.00 0.00 0.00 76 1014.0
20260502110545 53 214 0.0 0.0 0.00 0.00 0.00 75 1014.1
20260502105043 53 214 0.0 0.0 0.00 0.00 0.00 75 1014.1
20260502102850 54 213 0.0 0.0 0.00 0.00 0.00 74 1014.1
20260502101348 54 213 0.0 0.0 0.00 0.00 0.00 74 1014.2
20260502071341 59 328 0.0 0.0 0.00 0.00 0.00 65 1014.9
20260502065841 60 250 0.0 0.0 0.00 0.00 0.00 64 1015.0
20260502064340 60 250 0.0 1.0 0.00 0.00 0.00 63 1015.0
20260502062839 60 224 0.0 1.0 0.00 0.00 0.00 63 1015.1
20260502061339 61 249 0.0 0.0 0.00 0.00 0.00 62 1015.1
20260502055839 61 247 0.0 0.0 0.00 0.00 0.00 62 1015.1
20260502055030 62 260 0.0 0.0 0.00 0.00 0.00 61 1015.2
20260502052836 62 260 0.0 0.0 0.00 0.00 0.00 61 1015.0
20260502052733 62 246 0.0 0.0 0.00 0.00 0.00 60 1015.2
20260502045836 63 263 0.0 1.0 0.00 0.00 0.00 59 1014.9
20260502044335 63 247 0.0 9.0 0.00 0.00 0.00 59 1014.8
20260502042835 64 278 0.0 2.0 0.00 0.00 0.00 59 1014.6
20260502041335 64 231 0.0 4.0 0.00 0.00 0.00 58 1014.5
20260502035834 65 261 0.0 8.0 0.00 0.00 0.00 57 1014.3
20260502034332 65 291 0.0 4.0 0.00 0.00 0.00 55 1013.9
20260502032830 66 283 0.0 2.0 0.00 0.00 0.00 54 1013.8
20260502031330 66 297 0.0 10.0 0.00 0.00 0.00 53 1013.6
20260502025830 67 309 1.0 8.0 0.00 0.00 0.00 51 1013.5
20260502025021 68 287 1.0 9.0 0.00 0.00 0.00 49 1013.2
20260502022830 69 312 0.0 6.0 0.00 0.00 0.00 48 1013.1
20260502021330 69 275 1.0 13.0 0.00 0.00 0.00 46 1012.8
20260502015830 69 270 1.0 8.0 0.00 0.00 0.00 45 1012.8
20260502014330 70 247 1.0 8.0 0.00 0.00 0.00 43 1012.8
20260502012830 71 250 1.0 8.0 0.00 0.00 0.00 42 1012.7
20260502011328 72 258 0.0 6.0 0.00 0.00 0.00 40 1012.5
20260502005826 72 310 1.0 7.0 0.00 0.00 0.00 40 1012.5
20260502004324 73 291 1.0 9.0 0.00 0.00 0.00 38 1012.4
20260502002822 74 264 1.0 13.0 0.00 0.00 0.00 39 1012.1
20260502001320 74 251 2.0 11.0 0.00 0.00 0.00 40 1012.0
20260501235814 74 292 1.0 14.0 0.00 0.00 0.00 40 1012.0
20260501234313 74 354 2.0 16.0 0.00 0.00 0.00 40 1012.1
20260501232815 74 345 2.0 12.0 0.00 0.00 0.00 39 1012.2
20260501231313 76 325 1.0 9.0 0.00 0.00 0.00 38 1012.2
20260501225814 76 289 1.0 9.0 0.00 0.00 0.00 38 1012.3
20260501224314 76 306 1.0 4.0 0.00 0.00 0.00 37 1012.5
20260501222814 77 289 1.0 10.0 0.00 0.00 0.00 37 1012.7
20260501221312 76 234 0.0 5.0 0.00 0.00 0.00 36 1012.9
20260501215810 76 264 1.0 10.0 0.00 0.00 0.00 36 1013.0
20260501214308 76 269 0.0 2.0 0.00 0.00 0.00 37 1013.3
20260501212808 76 258 1.0 4.0 0.00 0.00 0.00 37 1013.4
20260501211307 75 288 1.0 10.0 0.00 0.00 0.00 37 1013.8
20260501205808 74 289 0.0 6.0 0.00 0.00 0.00 39 1013.9
20260501204305 74 254 0.0 6.0 0.00 0.00 0.00 36 1014.0
20260501202805 74 257 0.0 7.0 0.00 0.00 0.00 40 1014.3
20260501201959 72 164 0.0 2.0 0.00 0.00 0.00 43 1014.4
20260501195803 71 284 0.0 3.0 0.00 0.00 0.00 44 1014.7
20260501194301 71 245 0.0 1.0 0.00 0.00 0.00 47 1014.9
20260501192757 69 172 0.0 0.0 0.00 0.00 0.00 49 1015.1
20260501191255 68 253 0.0 0.0 0.00 0.00 0.00 51 1015.5
20260501185756 67 211 0.0 0.0 0.00 0.00 0.00 53 1015.6
20260501184253 65 295 0.0 0.0 0.00 0.00 0.00 56 1015.8
20260501182754 65 264 0.0 0.0 0.00 0.00 0.00 57 1015.9
20260501181252 64 173 0.0 2.0 0.00 0.00 0.00 59 1016.0
20260501175752 63 264 0.0 6.0 0.00 0.00 0.00 59 1016.1
20260501174251 63 310 0.0 0.0 0.00 0.00 0.00 61 1016.3
20260501172753 62 287 0.0 3.0 0.00 0.00 0.00 62 1016.3
20260501171251 60 301 0.0 2.0 0.00 0.00 0.00 65 1016.4